Tracking 32422 objects as of 8-Dec-2025
HD Live streaming from Space Station
objects crossing your sky now

CZ-6A DEB

Track CZ-6A DEB now!
10-day predictions


NORAD ID: 56685
Int'l Code: 2022-151AHM
Perigee: 808.5 km
Apogee: 870.8 km
Inclination: 98.8 °
Period: 101.6 minutes
Semi major axis: 7210 km
RCS: Unknown
Launch date: November 11, 2022
Source: People's Republic of China (PRC)
Launch site: Taiyaun Space Center, China (TSC)

Note: This is SATELLITE DEBRIS
Your satellite tracking list
Your tracking list is empty




NASA's NSSDC Master Catalog

Two Line Element Set (TLE):
1 56685U 22151AHM 25341.25031725  .00004469  00000-0  21876-2 0  9990
2 56685  98.8175 344.0811 0043213 142.7155 217.7033 14.17875401134075
Source of the keplerian elements: AFSPC